Location: *
(46.1200°N, 11.2700°E)
Time: 14:49:49
(UTC+00:00)

Cosmos 2322 Rocket - Pass Details

Date: 02 March 2021
Orbit: 832 x 852 km, 71.0° (Epoch: 22 April)

Event Time Altitude Azimuth Distance (km) Brightness Sun altitude
Rises 17:37:30 0° 186° (S) 3,361 5.4 -6.8°
Reaches altitude 10° 17:40:00 10° 180° (S) 2,432 4.6 -7.2°
Maximum altitude 17:45:18 47° 109° (ESE) 1,099 2.4 -8.2°
Drops below altitude 10° 17:50:39 10° 37° (NE) 2,453 4.3 -9.1°
Sets 17:53:10 0° 31° (NNE) 3,393 5.0 -9.5°
